Location: *
(46.4000°N, 12.6667°E)
Time: 13:53:49
(UTC+00:00)

Cosmos 1174 - Visible Passes

Search period start: 06 August 2020 00:00
Search period end: 16 August 2020 00:00
Orbit: 366 x 1152 km, 66.1° (Epoch: 05 August)

Date Brightness Start Highest point End Pass type
(mag) Time Alt. Az. Time Alt. Az. Time Alt. Az.
13 Aug 6.5 03:11:36 10° SSE 03:14:33 19° ESE 03:17:57 10° ENE visible
14 Aug 7.0 02:33:44 10° ESE 02:34:44 11° E 02:35:47 10° E visible
15 Aug 4.9 03:31:57 10° SSW 03:36:02 54° ESE 03:41:14 10° NE visible
